IBE06EB LIML-LEMD

Flight info

Callsign IBE06EB
Flight time 1h 51m
Altitude 37000
Route ITCAP DCT GEKBA DCT VAMTU DCT KOLON DCT GANGU DCT PADKO DCT DIVKO DCT NILDU DCT NENDA N975 ADUXO
Aircraft A20N/M-SDE3FGHIJ1RWXY/LB1

Departure

Time 2026-05-01 12:19
Airport Milano Linate Airport (LIML)

Arrival

Time 2026-05-01 14:11
Airport Adolfo Suárez Madrid–Barajas Airport (LEMD)
Time Latitude Longitude Altitude Speed Heading
2026-05-01 12:00 45.45972 9.27904 363 ft 0 kts 360°
2026-05-01 12:10 45.45969 9.27904 363 ft 3 kts 360°
2026-05-01 12:10 45.45921 9.27902 363 ft 4 kts 27°
2026-05-01 12:10 45.45908 9.27877 368 ft 4 kts 86°
2026-05-01 12:11 45.45907 9.27903 368 ft 0 kts 90°
2026-05-01 12:13 45.45906 9.27946 366 ft 10 kts 101°
2026-05-01 12:13 45.45806 9.27983 365 ft 21 kts 180°
2026-05-01 12:13 45.45638 9.27983 369 ft 27 kts 178°
2026-05-01 12:13 45.45457 9.27978 363 ft 26 kts 176°
2026-05-01 12:14 45.45296 9.27912 364 ft 24 kts 208°
2026-05-01 12:14 45.45118 9.27873 363 ft 27 kts 180°
2026-05-01 12:14 45.44940 9.27904 363 ft 25 kts 169°
2026-05-01 12:14 45.44776 9.27946 368 ft 23 kts 174°
2026-05-01 12:15 45.44598 9.27967 365 ft 25 kts 179°
2026-05-01 12:15 45.44399 9.27987 367 ft 28 kts 174°
2026-05-01 12:15 45.44207 9.28008 366 ft 27 kts 175°
2026-05-01 12:15 45.44022 9.28029 368 ft 26 kts 178°
2026-05-01 12:16 45.43847 9.28047 363 ft 25 kts 175°
2026-05-01 12:16 45.43679 9.28064 363 ft 24 kts 175°
2026-05-01 12:16 45.43519 9.28082 365 ft 22 kts 175°
2026-05-01 12:16 45.43444 9.27981 364 ft 16 kts 265°
2026-05-01 12:17 45.43453 9.27841 368 ft 13 kts 304°
2026-05-01 12:17 45.43496 9.27816 365 ft 0 kts 355°
2026-05-01 12:18 45.43498 9.27815 365 ft 3 kts 355°
2026-05-01 12:19 45.43719 9.27793 365 ft 65 kts 356°
2026-05-01 12:19 45.44388 9.27721 367 ft 128 kts 355°
2026-05-01 12:19 45.45433 9.27591 558 ft 163 kts 355°
2026-05-01 12:19 45.46533 9.27610 1333 ft 156 kts 18°
2026-05-01 12:20 45.47411 9.28435 2065 ft 155 kts 58°
2026-05-01 12:20 45.47832 9.29954 2486 ft 179 kts 85°
2026-05-01 12:20 45.47484 9.31739 2782 ft 201 kts 122°
2026-05-01 12:20 45.46536 9.33419 2978 ft 236 kts 131°
2026-05-01 12:21 45.45255 9.35051 3576 ft 254 kts 146°
2026-05-01 12:21 45.43737 9.36384 4511 ft 258 kts 148°
2026-05-01 12:21 45.42172 9.37696 5281 ft 264 kts 148°
2026-05-01 12:21 45.40581 9.39027 6254 ft 266 kts 147°
2026-05-01 12:22 45.38988 9.40368 7207 ft 267 kts 147°
2026-05-01 12:22 45.37376 9.41732 8019 ft 272 kts 147°
2026-05-01 12:22 45.35734 9.43121 8840 ft 277 kts 147°
2026-05-01 12:22 45.34061 9.44533 9666 ft 282 kts 146°
2026-05-01 12:23 45.32364 9.45962 10471 ft 287 kts 146°
2026-05-01 12:23 45.30614 9.47439 10862 ft 307 kts 146°
2026-05-01 12:23 45.28718 9.49044 11173 ft 328 kts 146°
2026-05-01 12:23 45.26688 9.50755 11486 ft 348 kts 146°
2026-05-01 12:24 45.24563 9.52542 12055 ft 359 kts 146°
2026-05-01 12:24 45.22332 9.54216 12766 ft 368 kts 156°
2026-05-01 12:24 45.19908 9.55467 13515 ft 373 kts 157°
2026-05-01 12:24 45.17444 9.56729 14224 ft 379 kts 156°
2026-05-01 12:25 45.14948 9.58025 14845 ft 384 kts 156°
2026-05-01 12:25 45.09779 9.60226 16194 ft 398 kts 173°
2026-05-01 12:25 45.07002 9.59856 16847 ft 407 kts 194°
2026-05-01 12:26 45.04392 9.58253 17519 ft 412 kts 207°
2026-05-01 12:26 44.99392 9.54110 18795 ft 421 kts 209°
2026-05-01 12:26 44.96856 9.51998 19333 ft 425 kts 209°
2026-05-01 12:27 44.94289 9.49884 19876 ft 429 kts 209°
2026-05-01 12:27 44.89077 9.45636 20984 ft 436 kts 209°
2026-05-01 12:28 44.83774 9.41345 22068 ft 443 kts 210°
2026-05-01 12:28 44.81118 9.39200 22586 ft 446 kts 210°
2026-05-01 12:28 44.75683 9.34824 23596 ft 453 kts 210°
2026-05-01 12:29 44.72936 9.32617 24088 ft 456 kts 210°
2026-05-01 12:29 44.70173 9.30398 24493 ft 459 kts 210°
2026-05-01 12:29 44.64586 9.25919 25311 ft 464 kts 210°
2026-05-01 12:30 44.59901 9.22171 25977 ft 468 kts 210°
2026-05-01 12:30 44.57059 9.19901 26363 ft 471 kts 210°
2026-05-01 12:30 44.54202 9.17622 26718 ft 474 kts 210°
2026-05-01 12:31 44.51326 9.15329 27108 ft 476 kts 210°
2026-05-01 12:31 44.48524 9.12843 27473 ft 478 kts 217°
2026-05-01 12:31 44.46009 9.09795 27834 ft 479 kts 227°
2026-05-01 12:31 44.43923 9.06175 28288 ft 476 kts 238°
2026-05-01 12:32 44.42339 9.02145 28753 ft 472 kts 249°
2026-05-01 12:32 44.40630 8.93370 29666 ft 465 kts 262°
2026-05-01 12:32 44.40085 8.88921 30178 ft 463 kts 263°
2026-05-01 12:33 44.39596 8.84479 30613 ft 461 kts 264°
2026-05-01 12:33 44.39125 8.80056 31023 ft 459 kts 264°
2026-05-01 12:33 44.38651 8.75642 31432 ft 458 kts 264°
2026-05-01 12:33 44.38169 8.71256 31798 ft 456 kts 263°
2026-05-01 12:34 44.37677 8.66894 32285 ft 452 kts 263°
2026-05-01 12:34 44.37181 8.62574 32726 ft 449 kts 263°
2026-05-01 12:34 44.36681 8.58276 33084 ft 448 kts 263°
2026-05-01 12:34 44.36179 8.53987 33425 ft 447 kts 263°
2026-05-01 12:35 44.35682 8.49763 33724 ft 446 kts 262°
2026-05-01 12:35 44.35178 8.45493 34085 ft 445 kts 263°
2026-05-01 12:35 44.34675 8.41239 34398 ft 444 kts 263°
2026-05-01 12:35 44.34171 8.36987 34667 ft 443 kts 263°
2026-05-01 12:36 44.33667 8.32749 34924 ft 442 kts 262°
2026-05-01 12:36 44.33156 8.28470 35214 ft 440 kts 262°
2026-05-01 12:36 44.32658 8.24310 35446 ft 439 kts 262°
2026-05-01 12:36 44.32153 8.20106 35676 ft 439 kts 262°
2026-05-01 12:37 44.31647 8.15903 35913 ft 438 kts 262°
2026-05-01 12:37 44.31141 8.11720 36155 ft 436 kts 262°
2026-05-01 12:37 44.30635 8.07548 36354 ft 436 kts 262°
2026-05-01 12:37 44.30127 8.03371 36554 ft 436 kts 262°
2026-05-01 12:38 44.29618 7.99202 36746 ft 436 kts 262°
2026-05-01 12:38 44.29108 7.95034 36941 ft 435 kts 262°
2026-05-01 12:38 44.28598 7.90889 37255 ft 431 kts 262°
2026-05-01 12:38 44.28079 7.86763 37341 ft 433 kts 260°
2026-05-01 12:39 44.26083 7.78838 37353 ft 436 kts 243°
2026-05-01 12:39 44.22339 7.72146 37354 ft 442 kts 226°
2026-05-01 12:40 44.17762 7.66307 37355 ft 451 kts 223°
2026-05-01 12:40 44.13206 7.60236 37359 ft 456 kts 229°
2026-05-01 12:41 44.08922 7.53640 37340 ft 460 kts 231°
2026-05-01 12:41 44.04723 7.46942 37346 ft 458 kts 231°
2026-05-01 12:42 44.00581 7.40304 37353 ft 457 kts 231°
2026-05-01 12:42 43.96405 7.33623 37339 ft 458 kts 232°
2026-05-01 12:43 43.92598 7.26607 37334 ft 454 kts 239°
2026-05-01 12:43 43.89155 7.19277 37331 ft 454 kts 240°
2026-05-01 12:44 43.85778 7.11890 37315 ft 454 kts 241°
2026-05-01 12:45 43.79021 6.97121 37319 ft 453 kts 241°
2026-05-01 12:45 43.75628 6.89770 37318 ft 453 kts 240°
2026-05-01 12:46 43.72228 6.82430 37302 ft 453 kts 240°
2026-05-01 12:46 43.68828 6.75112 37319 ft 451 kts 240°
2026-05-01 12:47 43.65438 6.67835 37301 ft 450 kts 240°
2026-05-01 12:47 43.62050 6.60568 37306 ft 450 kts 240°
2026-05-01 12:48 43.58659 6.53317 37310 ft 450 kts 240°
2026-05-01 12:48 43.55265 6.46076 37306 ft 450 kts 239°
2026-05-01 12:49 43.51866 6.38846 37314 ft 448 kts 239°
2026-05-01 12:49 43.48472 6.31642 37316 ft 448 kts 239°
2026-05-01 12:50 43.45076 6.24452 37315 ft 448 kts 239°
2026-05-01 12:50 43.41679 6.17280 37312 ft 447 kts 239°
2026-05-01 12:51 43.38282 6.10123 37308 ft 447 kts 240°
2026-05-01 12:52 43.33195 5.99439 37297 ft 445 kts 240°
2026-05-01 12:52 43.28140 5.88858 37290 ft 444 kts 239°
2026-05-01 12:53 43.23055 5.78257 37287 ft 444 kts 239°
2026-05-01 12:54 43.19658 5.71194 37287 ft 444 kts 239°
2026-05-01 12:54 43.14546 5.60598 37281 ft 444 kts 238°
2026-05-01 12:55 43.09427 5.50026 37282 ft 444 kts 238°
2026-05-01 12:56 43.06004 5.42976 37282 ft 445 kts 238°
2026-05-01 12:56 43.02570 5.35923 37293 ft 446 kts 239°
2026-05-01 12:57 42.99136 5.28886 37286 ft 444 kts 238°
2026-05-01 12:57 42.94006 5.18404 37289 ft 442 kts 238°
2026-05-01 12:58 42.90611 5.11483 37284 ft 441 kts 237°
2026-05-01 12:59 42.85476 5.01053 37285 ft 441 kts 237°
2026-05-01 12:59 42.80336 4.90651 37286 ft 440 kts 237°
2026-05-01 13:00 42.75206 4.80303 37289 ft 439 kts 238°
2026-05-01 13:01 42.70068 4.69971 37279 ft 439 kts 237°
2026-05-01 13:02 42.64917 4.59652 37281 ft 439 kts 237°
2026-05-01 13:07 42.26890 3.84546 37267 ft 439 kts 236°
2026-05-01 13:08 42.23383 3.77796 37268 ft 439 kts 235°
2026-05-01 13:08 42.19842 3.71084 37266 ft 439 kts 235°
2026-05-01 13:09 42.16297 3.64384 37267 ft 439 kts 235°
2026-05-01 13:09 42.12772 3.57727 37265 ft 439 kts 235°
2026-05-01 13:10 42.09233 3.51051 37261 ft 438 kts 235°
2026-05-01 13:10 42.05690 3.44379 37262 ft 438 kts 235°
2026-05-01 13:11 42.02145 3.37721 37264 ft 438 kts 235°
2026-05-01 13:11 41.98597 3.31071 37265 ft 438 kts 235°
2026-05-01 13:12 41.95043 3.24426 37261 ft 438 kts 235°
2026-05-01 13:12 41.91492 3.17800 37265 ft 436 kts 235°
2026-05-01 13:13 41.87949 3.11202 37260 ft 435 kts 235°
2026-05-01 13:13 41.84399 3.04609 37259 ft 435 kts 234°
2026-05-01 13:14 41.80849 2.98028 37258 ft 435 kts 234°
2026-05-01 13:14 41.77298 2.91459 37261 ft 435 kts 234°
2026-05-01 13:15 41.73740 2.84892 37248 ft 435 kts 234°
2026-05-01 13:15 41.70784 2.79445 37260 ft 435 kts 234°
2026-05-01 13:16 41.67196 2.72934 37259 ft 435 kts 233°
2026-05-01 13:16 41.63494 2.66540 37252 ft 435 kts 232°
2026-05-01 13:17 41.56034 2.53822 37243 ft 435 kts 232°
2026-05-01 13:18 41.50449 2.44281 37240 ft 435 kts 232°
2026-05-01 13:18 41.46711 2.37908 37236 ft 436 kts 232°
2026-05-01 13:19 41.42972 2.31547 37240 ft 436 kts 232°
2026-05-01 13:20 41.37355 2.22016 37241 ft 435 kts 232°
2026-05-01 13:20 41.33645 2.15680 37238 ft 433 kts 235°
2026-05-01 13:21 41.30834 2.08608 37238 ft 435 kts 251°
2026-05-01 13:21 41.30062 2.04761 37241 ft 436 kts 257°
2026-05-01 13:21 41.29009 1.96793 37238 ft 438 kts 260°
2026-05-01 13:22 41.28130 1.88780 37237 ft 438 kts 260°
2026-05-01 13:22 41.27242 1.80749 37229 ft 439 kts 260°
2026-05-01 13:23 41.26320 1.72736 37225 ft 438 kts 260°
2026-05-01 13:23 41.25378 1.64722 37220 ft 439 kts 259°
2026-05-01 13:24 41.24432 1.56724 37225 ft 439 kts 260°
2026-05-01 13:25 41.23000 1.44688 37230 ft 441 kts 260°
2026-05-01 13:25 41.22035 1.36635 37232 ft 442 kts 259°
2026-05-01 13:26 41.21072 1.28644 37235 ft 441 kts 259°
2026-05-01 13:26 41.20096 1.20600 37238 ft 441 kts 259°
2026-05-01 13:27 41.19116 1.12567 37238 ft 441 kts 260°
2026-05-01 13:27 41.17630 1.00499 37236 ft 441 kts 259°
2026-05-01 13:28 41.16213 0.89105 37213 ft 440 kts 259°
2026-05-01 13:29 41.14201 0.73064 37206 ft 440 kts 259°
2026-05-01 13:31 41.11150 0.49010 37203 ft 441 kts 259°
2026-05-01 13:32 41.08571 0.29055 37192 ft 441 kts 259°
2026-05-01 13:33 41.05943 0.09015 37182 ft 442 kts 259°
2026-05-01 13:34 41.03816 -0.07001 37173 ft 442 kts 260°
2026-05-01 13:35 41.02203 -0.19031 37174 ft 442 kts 259°
2026-05-01 13:36 41.00208 -0.30945 37163 ft 442 kts 252°
2026-05-01 13:36 40.97187 -0.42489 37168 ft 442 kts 250°
2026-05-01 13:37 40.95089 -0.50144 37165 ft 442 kts 250°
2026-05-01 13:37 40.92993 -0.57795 37166 ft 442 kts 250°
2026-05-01 13:38 40.89856 -0.69269 37161 ft 442 kts 251°
2026-05-01 13:39 40.87776 -0.76858 37170 ft 432 kts 251°
2026-05-01 13:39 40.85760 -0.84174 37168 ft 424 kts 251°
2026-05-01 13:40 40.83741 -0.91480 37167 ft 423 kts 251°
2026-05-01 13:40 40.81720 -0.98774 37170 ft 423 kts 251°
2026-05-01 13:41 40.79693 -1.06068 37166 ft 423 kts 251°
2026-05-01 13:41 40.77658 -1.13364 37167 ft 423 kts 251°
2026-05-01 13:42 40.75620 -1.20639 37172 ft 422 kts 251°
2026-05-01 13:42 40.73584 -1.27895 37175 ft 421 kts 251°
2026-05-01 13:43 40.71550 -1.35140 37181 ft 421 kts 251°
2026-05-01 13:43 40.69511 -1.42383 37180 ft 421 kts 251°
2026-05-01 13:44 40.67470 -1.49612 36946 ft 420 kts 251°
2026-05-01 13:44 40.66444 -1.53239 36132 ft 425 kts 251°
2026-05-01 13:44 40.65403 -1.56916 35304 ft 431 kts 251°
2026-05-01 13:44 40.64360 -1.60594 34490 ft 437 kts 251°
2026-05-01 13:45 40.63290 -1.64358 33724 ft 440 kts 251°
2026-05-01 13:45 40.62215 -1.68137 33019 ft 441 kts 251°
2026-05-01 13:45 40.61134 -1.71926 32310 ft 442 kts 251°
2026-05-01 13:45 40.60054 -1.75711 31581 ft 443 kts 251°
2026-05-01 13:46 40.58964 -1.79522 30834 ft 445 kts 251°
2026-05-01 13:46 40.57872 -1.83339 30042 ft 447 kts 250°
2026-05-01 13:46 40.56771 -1.87180 29167 ft 449 kts 250°
2026-05-01 13:46 40.55667 -1.91026 28363 ft 450 kts 250°
2026-05-01 13:47 40.54560 -1.94873 27544 ft 451 kts 250°
2026-05-01 13:47 40.53453 -1.98717 26871 ft 448 kts 249°
2026-05-01 13:47 40.52353 -2.02531 26312 ft 444 kts 249°
2026-05-01 13:47 40.51261 -2.06312 25711 ft 441 kts 249°
2026-05-01 13:48 40.50177 -2.10058 25258 ft 435 kts 249°
2026-05-01 13:48 40.49119 -2.13704 25163 ft 420 kts 249°
2026-05-01 13:48 40.48094 -2.17231 25045 ft 407 kts 249°
2026-05-01 13:48 40.47098 -2.20656 24863 ft 396 kts 249°
2026-05-01 13:49 40.46128 -2.23985 24681 ft 385 kts 249°
2026-05-01 13:49 40.45237 -2.27251 24499 ft 375 kts 254°
2026-05-01 13:49 40.44919 -2.30604 24337 ft 367 kts 272°
2026-05-01 13:49 40.45473 -2.33815 24183 ft 360 kts 291°
2026-05-01 13:50 40.46573 -2.36741 23913 ft 356 kts 296°
2026-05-01 13:50 40.47786 -2.39580 23452 ft 356 kts 297°
2026-05-01 13:50 40.49008 -2.42395 23040 ft 353 kts 297°
2026-05-01 13:50 40.50216 -2.45191 22635 ft 350 kts 297°
2026-05-01 13:51 40.51386 -2.47923 22186 ft 347 kts 297°
2026-05-01 13:51 40.52563 -2.50683 21734 ft 344 kts 297°
2026-05-01 13:51 40.53725 -2.53417 21289 ft 341 kts 297°
2026-05-01 13:51 40.54874 -2.56127 20728 ft 338 kts 297°
2026-05-01 13:52 40.56008 -2.58808 20167 ft 334 kts 297°
2026-05-01 13:52 40.57144 -2.61498 19609 ft 330 kts 297°
2026-05-01 13:52 40.58253 -2.64123 19133 ft 326 kts 297°
2026-05-01 13:52 40.59325 -2.66664 18751 ft 318 kts 297°
2026-05-01 13:53 40.60387 -2.69183 18381 ft 312 kts 297°
2026-05-01 13:53 40.62452 -2.74089 17617 ft 299 kts 297°
2026-05-01 13:53 40.63445 -2.76452 17344 ft 289 kts 297°
2026-05-01 13:54 40.64401 -2.78726 17065 ft 279 kts 297°
2026-05-01 13:54 40.65337 -2.80943 16726 ft 276 kts 297°
2026-05-01 13:54 40.66312 -2.83120 16526 ft 276 kts 299°
2026-05-01 13:54 40.67301 -2.85273 16280 ft 274 kts 299°
2026-05-01 13:55 40.68291 -2.87418 16029 ft 273 kts 299°
2026-05-01 13:55 40.69277 -2.89554 15865 ft 273 kts 299°
2026-05-01 13:55 40.70262 -2.91690 15639 ft 273 kts 298°
2026-05-01 13:55 40.71247 -2.93826 15335 ft 272 kts 298°
2026-05-01 13:56 40.72227 -2.95953 15030 ft 271 kts 298°
2026-05-01 13:56 40.73204 -2.98075 14732 ft 271 kts 298°
2026-05-01 13:56 40.74183 -3.00203 14419 ft 271 kts 298°
2026-05-01 13:56 40.75156 -3.02319 14121 ft 269 kts 298°
2026-05-01 13:57 40.76124 -3.04425 13794 ft 268 kts 298°
2026-05-01 13:57 40.76763 -3.05816 13580 ft 268 kts 298°
2026-05-01 13:57 40.78052 -3.08626 13173 ft 267 kts 298°
2026-05-01 13:57 40.79010 -3.10715 12869 ft 266 kts 298°
2026-05-01 13:58 40.79969 -3.12808 12462 ft 268 kts 298°
2026-05-01 13:58 40.80932 -3.14913 12109 ft 267 kts 298°
2026-05-01 13:58 40.81893 -3.17012 11800 ft 265 kts 298°
2026-05-01 13:58 40.82841 -3.19087 11508 ft 263 kts 298°
2026-05-01 13:59 40.83783 -3.21148 11219 ft 261 kts 298°
2026-05-01 13:59 40.84720 -3.23198 10928 ft 260 kts 298°
2026-05-01 13:59 40.85652 -3.25239 10639 ft 259 kts 298°
2026-05-01 13:59 40.86578 -3.27267 10359 ft 258 kts 298°
2026-05-01 14:00 40.87501 -3.29287 10070 ft 256 kts 297°
2026-05-01 14:00 40.88410 -3.31279 9777 ft 256 kts 297°
2026-05-01 14:00 40.89338 -3.33311 9489 ft 255 kts 298°
2026-05-01 14:00 40.90253 -3.35315 9210 ft 254 kts 298°
2026-05-01 14:01 40.91126 -3.37334 8926 ft 251 kts 291°
2026-05-01 14:01 40.91740 -3.39478 8704 ft 248 kts 284°
2026-05-01 14:01 40.92172 -3.41654 8474 ft 248 kts 280°
2026-05-01 14:01 40.92482 -3.43892 8246 ft 246 kts 270°
2026-05-01 14:02 40.92408 -3.46119 8025 ft 240 kts 260°
2026-05-01 14:02 40.92193 -3.48332 7792 ft 240 kts 256°
2026-05-01 14:02 40.91883 -3.49720 7654 ft 237 kts 242°
2026-05-01 14:02 40.90610 -3.51949 7362 ft 227 kts 217°
2026-05-01 14:03 40.89299 -3.53129 7147 ft 230 kts 209°
2026-05-01 14:03 40.87881 -3.54114 6935 ft 230 kts 202°
2026-05-01 14:03 40.86340 -3.54695 6707 ft 232 kts 190°
2026-05-01 14:03 40.84755 -3.55062 6499 ft 231 kts 189°
2026-05-01 14:04 40.83166 -3.55402 6288 ft 231 kts 189°
2026-05-01 14:04 40.82104 -3.55695 6132 ft 231 kts 194°
2026-05-01 14:04 40.80529 -3.56086 5987 ft 230 kts 185°
2026-05-01 14:04 40.78965 -3.56162 6014 ft 216 kts 180°
2026-05-01 14:05 40.77524 -3.56144 5984 ft 206 kts 179°
2026-05-01 14:05 40.76142 -3.56122 5985 ft 189 kts 180°
2026-05-01 14:05 40.74908 -3.56105 5985 ft 167 kts 180°
2026-05-01 14:05 40.73785 -3.56096 5992 ft 159 kts 179°
2026-05-01 14:06 40.72690 -3.56101 5875 ft 156 kts 181°
2026-05-01 14:06 40.71562 -3.56103 5759 ft 173 kts 180°
2026-05-01 14:06 40.70305 -3.56092 5467 ft 185 kts 179°
2026-05-01 14:06 40.69016 -3.56077 5138 ft 185 kts 180°
2026-05-01 14:07 40.67729 -3.56067 4846 ft 186 kts 180°
2026-05-01 14:07 40.66431 -3.56055 4594 ft 186 kts 181°
2026-05-01 14:07 40.65189 -3.56044 4384 ft 171 kts 180°
2026-05-01 14:08 40.62980 -3.56024 3977 ft 144 kts 180°
2026-05-01 14:08 40.62024 -3.56017 3761 ft 131 kts 180°
2026-05-01 14:08 40.61110 -3.56010 3608 ft 133 kts 180°
2026-05-01 14:08 40.60174 -3.56004 3424 ft 135 kts 180°
2026-05-01 14:09 40.59224 -3.55996 3239 ft 137 kts 181°
2026-05-01 14:09 40.58270 -3.55988 3060 ft 137 kts 179°
2026-05-01 14:09 40.57326 -3.55980 2875 ft 134 kts 181°
2026-05-01 14:09 40.56390 -3.55973 2705 ft 135 kts 181°
2026-05-01 14:10 40.55436 -3.55961 2546 ft 137 kts 180°
2026-05-01 14:10 40.54492 -3.55947 2321 ft 134 kts 184°
2026-05-01 14:10 40.53550 -3.55943 2125 ft 137 kts 183°
2026-05-01 14:10 40.52607 -3.55940 1973 ft 134 kts 181°
2026-05-01 14:11 40.51768 -3.55932 1956 ft 102 kts 180°
2026-05-01 14:11 40.50930 -3.56018 1965 ft 30 kts 211°
2026-05-01 14:11 40.50791 -3.56121 1968 ft 19 kts 201°
2026-05-01 14:12 40.50662 -3.56151 1967 ft 19 kts 181°
2026-05-01 14:12 40.50532 -3.56148 1966 ft 18 kts 180°
2026-05-01 14:12 40.50407 -3.56143 1966 ft 17 kts 180°
2026-05-01 14:12 40.50282 -3.56147 1962 ft 19 kts 180°
2026-05-01 14:13 40.50195 -3.56231 1964 ft 15 kts 236°
2026-05-01 14:13 40.50092 -3.56260 1964 ft 19 kts 179°
2026-05-01 14:13 40.49963 -3.56257 1964 ft 18 kts 174°
2026-05-01 14:13 40.49839 -3.56250 1964 ft 18 kts 178°
2026-05-01 14:14 40.49720 -3.56249 1964 ft 17 kts 180°
2026-05-01 14:14 40.49604 -3.56248 1964 ft 18 kts 180°
2026-05-01 14:14 40.49434 -3.56247 1965 ft 25 kts 179°
2026-05-01 14:14 40.49260 -3.56246 1964 ft 25 kts 180°
2026-05-01 14:15 40.49089 -3.56245 1965 ft 24 kts 179°
2026-05-01 14:15 40.48923 -3.56242 1965 ft 23 kts 178°
2026-05-01 14:15 40.48863 -3.56345 1967 ft 15 kts 269°
2026-05-01 14:15 40.48862 -3.56494 1971 ft 19 kts 269°
2026-05-01 14:16 40.48861 -3.56652 1976 ft 16 kts 270°
2026-05-01 14:16 40.48860 -3.56783 1978 ft 13 kts 270°
2026-05-01 14:16 40.48860 -3.56950 1981 ft 21 kts 270°
2026-05-01 14:16 40.48857 -3.57100 1984 ft 16 kts 273°
2026-05-01 14:17 40.48859 -3.57257 1987 ft 17 kts 268°
2026-05-01 14:17 40.48859 -3.57403 1989 ft 15 kts 270°
2026-05-01 14:17 40.48860 -3.57527 1992 ft 12 kts 270°
2026-05-01 14:17 40.48859 -3.57628 1993 ft 9 kts 270°
2026-05-01 14:18 40.48859 -3.57682 1994 ft 5 kts 269°
2026-05-01 14:18 40.48858 -3.57778 1996 ft 13 kts 270°
2026-05-01 14:18 40.48858 -3.57901 2001 ft 14 kts 270°
2026-05-01 14:18 40.48857 -3.57997 2004 ft 16 kts 265°
2026-05-01 14:19 40.48709 -3.58049 2005 ft 20 kts 181°
2026-05-01 14:19 40.48600 -3.58108 2005 ft 17 kts 263°
2026-05-01 14:19 40.48597 -3.58255 2012 ft 16 kts 269°
2026-05-01 14:19 40.48596 -3.58394 2015 ft 19 kts 270°
2026-05-01 14:20 40.48595 -3.58557 2031 ft 16 kts 271°
2026-05-01 14:20 40.48676 -3.58808 2028 ft 19 kts 359°
2026-05-01 14:20 40.48803 -3.58810 2025 ft 18 kts 358°
2026-05-01 14:21 40.48923 -3.58812 2029 ft 16 kts 360°
2026-05-01 14:21 40.48965 -3.58904 2025 ft 12 kts 272°
2026-05-01 14:21 40.48965 -3.58963 2025 ft 0 kts 269°